�������l�o���
Date,Time,MP-1(��Sv/h),MP-2(��Sv/h),MP-3(��Sv/h),MP-4(��Sv/h),MP-5(��Sv/h),MP-6(��Sv/h),MP-7(��Sv/h),MP-8(��Sv/h),����,����(m/s),���J
2024/06/01,00:00,0.483,0.736,0.469,0.908,0.658,0.307,0.534,0.499,�k�k��,3.3,��
2024/06/01,00:10,0.483,0.735,0.467,0.907,0.659,0.309,0.536,0.499,�k�k��,3.2,�L
2024/06/01,00:20,0.482,0.738,0.468,0.907,0.661,0.308,0.536,0.499,�k�k��,3.3,�L
2024/06/01,00:30,0.482,0.737,0.469,0.908,0.659,0.309,0.537,0.501,�k�k��,3.1,�L
2024/06/01,00:40,0.482,0.735,0.469,0.908,0.660,0.309,0.538,0.499,�k�k��,2.3,�L
2024/06/01,00:50,0.480,0.737,0.468,0.910,0.661,0.308,0.536,0.501,�k��,2.9,��
2024/06/01,01:00,0.482,0.737,0.467,0.907,0.659,0.308,0.537,0.500,�k�k��,2.3,�L
2024/06/01,01:10,0.481,0.736,0.468,0.908,0.661,0.308,0.537,0.499,�k�k��,3.4,�L
2024/06/01,01:20,0.482,0.736,0.469,0.908,0.660,0.308,0.538,0.500,�k,3.4,��
2024/06/01,01:30,0.480,0.737,0.468,0.908,0.659,0.307,0.537,0.501,�k�k��,3.2,��
2024/06/01,01:40,0.481,0.738,0.468,0.908,0.659,0.310,0.537,0.500,�k�k��,2.6,��
2024/06/01,01:50,0.480,0.736,0.470,0.909,0.660,0.309,0.537,0.501,�k�k��,2.0,��
2024/06/01,02:00,0.482,0.736,0.467,0.907,0.660,0.308,0.539,0.500,�k��,2.0,��
2024/06/01,02:10,0.480,0.736,0.467,0.907,0.660,0.309,0.539,0.501,�k�k��,2.3,�L
2024/06/01,02:20,0.483,0.732,0.468,0.907,0.657,0.308,0.537,0.500,�k��,1.7,�L
2024/06/01,02:30,0.482,0.733,0.469,0.907,0.656,0.309,0.537,0.501,�k��,2.0,�L
2024/06/01,02:40,0.481,0.732,0.469,0.907,0.656,0.308,0.536,0.499,�k,2.9,�L
2024/06/01,02:50,0.480,0.731,0.468,0.904,0.656,0.308,0.534,0.497,�k,3.6,�L
2024/06/01,03:00,0.479,0.733,0.468,0.906,0.655,0.307,0.535,0.496,�k�k��,2.8,��
2024/06/01,03:10,0.479,0.731,0.466,0.906,0.654,0.307,0.534,0.498,�k��,2.9,��
2024/06/01,03:20,0.480,0.731,0.468,0.904,0.657,0.307,0.535,0.498,�k��,2.3,�L
2024/06/01,03:30,0.481,0.730,0.466,0.906,0.656,0.309,0.537,0.499,�k�k��,1.9,�L
2024/06/01,03:40,0.480,0.732,0.467,0.904,0.654,0.308,0.534,0.500,�k�k��,2.8,��
2024/06/01,03:50,0.482,0.733,0.468,0.905,0.655,0.309,0.537,0.499,�k��,2.9,�L
2024/06/01,04:00,0.481,0.732,0.465,0.904,0.657,0.308,0.536,0.498,�k��,3.3,�L
2024/06/01,04:10,0.480,0.731,0.467,0.906,0.656,0.307,0.537,0.499,�k�k��,2.3,�L
2024/06/01,04:20,0.480,0.729,0.467,0.903,0.657,0.308,0.536,0.500,�k�k��,2.6,�L
2024/06/01,04:30,0.478,0.730,0.468,0.904,0.658,0.309,0.535,0.499,�k�k��,2.6,�L
2024/06/01,04:40,0.481,0.731,0.467,0.904,0.656,0.307,0.537,0.498,�k,2.6,�L
2024/06/01,04:50,0.479,0.729,0.466,0.904,0.656,0.306,0.537,0.499,�k,2.6,�L
2024/06/01,05:00,0.479,0.730,0.466,0.903,0.654,0.308,0.538,0.500,�k,2.3,�L
2024/06/01,05:10,0.479,0.731,0.466,0.902,0.654,0.308,0.538,0.500,�k�k��,2.5,��
2024/06/01,05:20,0.478,0.730,0.466,0.902,0.654,0.307,0.536,0.499,�k,3.2,��
2024/06/01,05:30,0.477,0.730,0.465,0.904,0.656,0.308,0.536,0.498,�k,3.5,��
2024/06/01,05:40,0.478,0.731,0.464,0.903,0.656,0.308,0.536,0.499,�k,3.6,��
2024/06/01,05:50,0.478,0.730,0.464,0.904,0.655,0.306,0.537,0.499,�k,3.1,��
2024/06/01,06:00,0.478,0.731,0.464,0.904,0.656,0.308,0.537,0.499,�k�k��,2.6,��
2024/06/01,06:10,0.477,0.730,0.465,0.904,0.656,0.307,0.537,0.499,�k,2.6,��
2024/06/01,06:20,0.479,0.731,0.465,0.903,0.657,0.306,0.537,0.499,�k,1.7,��
2024/06/01,06:30,0.479,0.731,0.465,0.905,0.657,0.308,0.536,0.500,�k�k��,2.8,��
2024/06/01,06:40,0.478,0.730,0.465,0.903,0.656,0.306,0.537,0.499,�k��,2.6,��
2024/06/01,06:50,0.479,0.731,0.464,0.905,0.654,0.307,0.538,0.499,�k,1.7,��
2024/06/01,07:00,0.475,0.731,0.465,0.905,0.656,0.306,0.536,0.499,�k,2.6,��
2024/06/01,07:10,0.474,0.729,0.464,0.906,0.655,0.305,0.537,0.500,�k�k��,3.3,��
2024/06/01,07:20,0.475,0.730,0.464,0.903,0.654,0.306,0.536,0.498,�k�k��,3.5,��
2024/06/01,07:30,0.476,0.729,0.467,0.905,0.657,0.305,0.535,0.499,�k�k��,3.2,��
2024/06/01,07:40,0.477,0.730,0.465,0.903,0.653,0.305,0.535,0.498,�k�k��,3.4,��
2024/06/01,07:50,0.476,0.729,0.465,0.906,0.655,0.306,0.536,0.498,�k��,3.1,��
2024/06/01,08:00,0.477,0.730,0.468,0.904,0.655,0.307,0.537,0.499,�k��,3.6,��
2024/06/01,08:10,0.477,0.731,0.466,0.905,0.655,0.306,0.538,0.497,�k��,3.5,��
2024/06/01,08:20,0.478,0.731,0.466,0.905,0.656,0.305,0.536,0.497,�k��,4.1,��
2024/06/01,08:30,0.477,0.731,0.464,0.906,0.656,0.306,0.537,0.497,�k��,4.1,��
2024/06/01,08:40,0.478,0.733,0.464,0.906,0.656,0.307,0.536,0.499,�k��,4.4,��
2024/06/01,08:50,0.479,0.733,0.464,0.906,0.657,0.306,0.536,0.499,�k�k��,4.5,��
2024/06/01,09:00,0.479,0.734,0.465,0.905,0.656,0.306,0.536,0.498,�k��,4.0,��
2024/06/01,09:10,0.479,0.731,0.465,0.907,0.656,0.307,0.537,0.498,�k��,4.4,��
2024/06/01,09:20,0.480,0.736,0.466,0.904,0.657,0.307,0.537,0.498,�k��,4.1,��
2024/06/01,09:30,0.480,0.735,0.465,0.906,0.657,0.306,0.539,0.499,�k�k��,3.7,��
2024/06/01,09:40,0.480,0.735,0.467,0.905,0.656,0.307,0.538,0.500,�k��,3.8,��
2024/06/01,09:50,0.478,0.735,0.468,0.906,0.656,0.306,0.539,0.499,�k��,3.9,��
2024/06/01,10:00,0.481,0.734,0.467,0.905,0.659,0.307,0.538,0.498,�k��,3.3,��
2024/06/01,10:10,0.481,0.735,0.465,0.907,0.657,0.306,0.540,0.500,�k�k��,2.8,��
2024/06/01,10:20,0.481,0.735,0.467,0.906,0.658,0.307,0.538,0.499,�k��,3.4,��
2024/06/01,10:30,0.480,0.736,0.468,0.906,0.658,0.307,0.538,0.499,�k��,4.2,��
2024/06/01,10:40,0.482,0.735,0.468,0.906,0.659,0.305,0.540,0.499,�k��,3.2,��
2024/06/01,10:50,0.482,0.737,0.468,0.906,0.658,0.306,0.538,0.499,�k��,2.8,��
2024/06/01,11:00,0.481,0.735,0.468,0.907,0.658,0.307,0.538,0.499,�k��,4.4,��
2024/06/01,11:10,0.482,0.737,0.467,0.906,0.658,0.308,0.538,0.500,�k��,5.1,��
2024/06/01,11:20,0.482,0.738,0.469,0.908,0.659,0.307,0.539,0.500,�k�k��,5.3,��
2024/06/01,11:30,0.483,0.736,0.467,0.906,0.659,0.307,0.540,0.500,�k��,5.2,��
2024/06/01,11:40,0.483,0.737,0.469,0.906,0.658,0.307,0.540,0.499,�k��,4.0,��
2024/06/01,11:50,0.480,0.739,0.469,0.907,0.661,0.307,0.536,0.500,�k�k��,4.8,��
2024/06/01,12:00,0.482,0.738,0.469,0.905,0.660,0.307,0.539,0.499,�k��,4.9,��
2024/06/01,12:10,0.481,0.738,0.469,0.907,0.659,0.307,0.541,0.499,�k��,4.5,��
2024/06/01,12:20,0.483,0.737,0.468,0.909,0.658,0.307,0.539,0.499,�k�k��,3.8,��
2024/06/01,12:30,0.480,0.737,0.468,0.907,0.660,0.309,0.538,0.498,�k��,4.1,��
2024/06/01,12:40,0.481,0.738,0.468,0.907,0.660,0.307,0.540,0.500,�k�k��,4.2,��
2024/06/01,12:50,0.481,0.738,0.468,0.907,0.659,0.307,0.539,0.500,�k�k��,3.9,��
2024/06/01,13:00,0.481,0.737,0.468,0.907,0.658,0.307,0.539,0.498,�k��,3.3,��
2024/06/01,13:10,0.482,0.737,0.468,0.908,0.659,0.307,0.538,0.498,�k��,2.8,��
2024/06/01,13:20,0.482,0.740,0.468,0.910,0.660,0.307,0.539,0.499,�k�k��,3.0,��
2024/06/01,13:30,0.482,0.739,0.469,0.907,0.661,0.307,0.540,0.500,�k��,3.8,��
2024/06/01,13:40,0.482,0.738,0.468,0.907,0.662,0.305,0.539,0.499,�k��,3.6,��
2024/06/01,13:50,0.482,0.741,0.467,0.908,0.660,0.307,0.541,0.499,�k�k��,4.1,��
2024/06/01,14:00,0.483,0.739,0.469,0.907,0.659,0.307,0.540,0.499,�k�k��,3.7,��
2024/06/01,14:10,0.480,0.740,0.470,0.908,0.660,0.306,0.542,0.499,�k��,3.0,��
2024/06/01,14:20,0.480,0.737,0.469,0.910,0.660,0.308,0.541,0.499,�k�k��,3.0,��
2024/06/01,14:30,0.484,0.736,0.470,0.909,0.661,0.307,0.541,0.499,�k��,3.1,��
2024/06/01,14:40,0.483,0.740,0.470,0.908,0.659,0.307,0.542,0.500,���k��,2.8,��
2024/06/01,14:50,0.483,0.739,0.469,0.908,0.661,0.308,0.541,0.499,�k�k��,2.9,��
2024/06/01,15:00,0.482,0.740,0.471,0.908,0.659,0.306,0.542,0.498,�k��,3.1,��
2024/06/01,15:10,0.483,0.739,0.470,0.910,0.661,0.307,0.540,0.500,�k��,2.8,��
2024/06/01,15:20,0.483,0.740,0.470,0.909,0.661,0.309,0.541,0.499,�k��,2.9,��
2024/06/01,15:30,0.484,0.740,0.469,0.910,0.662,0.307,0.542,0.502,�k��,3.3,��
2024/06/01,15:40,0.482,0.739,0.470,0.908,0.659,0.307,0.541,0.500,�k�k��,3.1,��
2024/06/01,15:50,0.482,0.739,0.470,0.911,0.661,0.307,0.540,0.500,�k�k��,3.4,��
2024/06/01,16:00,0.482,0.740,0.470,0.909,0.662,0.306,0.540,0.500,�k�k��,3.7,��
2024/06/01,16:10,0.483,0.741,0.469,0.909,0.661,0.306,0.541,0.498,�k�k��,4.2,��
2024/06/01,16:20,0.483,0.741,0.470,0.910,0.662,0.308,0.540,0.499,�k�k��,4.3,��
2024/06/01,16:30,0.483,0.740,0.469,0.908,0.663,0.305,0.542,0.499,�k�k��,4.5,��
2024/06/01,16:40,0.483,0.741,0.470,0.909,0.662,0.306,0.541,0.499,�k�k��,5.0,��
2024/06/01,16:50,0.482,0.740,0.470,0.911,0.662,0.308,0.542,0.499,�k�k��,5.3,��
2024/06/01,17:00,0.483,0.741,0.470,0.911,0.663,0.307,0.540,0.501,�k�k��,5.8,��
2024/06/01,17:10,0.482,0.740,0.470,0.909,0.661,0.306,0.540,0.499,�k�k��,5.7,��
2024/06/01,17:20,0.483,0.740,0.469,0.909,0.661,0.308,0.541,0.501,�k�k��,6.6,��
2024/06/01,17:30,0.483,0.740,0.469,0.912,0.663,0.308,0.542,0.501,�k�k��,6.9,��
2024/06/01,17:40,0.483,0.740,0.470,0.911,0.661,0.308,0.541,0.498,�k�k��,5.9,��
2024/06/01,17:50,0.481,0.743,0.471,0.910,0.662,0.309,0.541,0.500,�k�k��,7.0,��
2024/06/01,18:00,0.483,0.739,0.469,0.910,0.661,0.308,0.542,0.500,�k�k��,6.4,��
2024/06/01,18:10,0.483,0.739,0.470,0.911,0.662,0.307,0.541,0.499,�k�k��,6.9,��
2024/06/01,18:20,0.483,0.742,0.471,0.911,0.662,0.307,0.540,0.500,�k�k��,6.0,��
2024/06/01,18:30,0.484,0.740,0.469,0.911,0.662,0.307,0.540,0.500,�k�k��,6.0,��
2024/06/01,18:40,0.485,0.740,0.471,0.912,0.662,0.307,0.540,0.500,�k�k��,5.1,��
2024/06/01,18:50,0.486,0.742,0.471,0.910,0.662,0.308,0.540,0.500,�k�k��,4.2,��
2024/06/01,19:00,0.485,0.741,0.472,0.912,0.663,0.306,0.539,0.501,�k�k��,4.9,��
2024/06/01,19:10,0.484,0.742,0.473,0.910,0.662,0.308,0.540,0.501,�k�k��,4.4,��
2024/06/01,19:20,0.485,0.743,0.473,0.912,0.663,0.308,0.539,0.503,�k�k��,4.8,��
2024/06/01,19:30,0.483,0.743,0.473,0.912,0.662,0.307,0.540,0.502,�k��,4.0,��
2024/06/01,19:40,0.486,0.743,0.474,0.909,0.662,0.308,0.539,0.503,�k,3.7,��
2024/06/01,19:50,0.486,0.744,0.473,0.914,0.665,0.308,0.539,0.502,�k�k��,2.5,��
2024/06/01,20:00,0.485,0.744,0.473,0.911,0.665,0.308,0.539,0.501,�k�k��,3.3,��
2024/06/01,20:10,0.485,0.744,0.473,0.911,0.665,0.307,0.538,0.502,�k�k��,2.8,��
2024/06/01,20:20,0.484,0.746,0.472,0.911,0.665,0.308,0.541,0.503,�k�k��,3.6,��
2024/06/01,20:30,0.486,0.743,0.471,0.911,0.666,0.309,0.540,0.504,�k,3.2,��
2024/06/01,20:40,0.485,0.742,0.472,0.910,0.666,0.308,0.540,0.504,�k,3.1,��
2024/06/01,20:50,0.487,0.743,0.471,0.909,0.666,0.308,0.540,0.502,�k,3.0,��
2024/06/01,21:00,0.486,0.744,0.472,0.912,0.665,0.309,0.539,0.502,�k,3.2,��
2024/06/01,21:10,0.486,0.744,0.472,0.912,0.665,0.309,0.540,0.504,�k�k��,2.6,��
2024/06/01,21:20,0.484,0.743,0.473,0.910,0.665,0.309,0.540,0.502,�k�k��,3.0,��
2024/06/01,21:30,0.485,0.742,0.473,0.912,0.665,0.308,0.539,0.502,�k�k��,2.8,��
2024/06/01,21:40,0.485,0.743,0.472,0.912,0.666,0.308,0.540,0.502,�k�k��,3.2,��
2024/06/01,21:50,0.485,0.744,0.471,0.911,0.666,0.309,0.540,0.502,�k�k��,3.7,��
2024/06/01,22:00,0.485,0.745,0.472,0.911,0.663,0.308,0.542,0.502,�k�k��,3.8,��
2024/06/01,22:10,0.484,0.744,0.472,0.913,0.666,0.308,0.540,0.503,�k�k��,3.5,��
2024/06/01,22:20,0.485,0.744,0.472,0.914,0.667,0.309,0.541,0.503,�k��,3.3,��
2024/06/01,22:30,0.485,0.744,0.473,0.911,0.664,0.309,0.540,0.503,�k��,3.7,��
2024/06/01,22:40,0.486,0.744,0.473,0.913,0.664,0.310,0.541,0.503,�k��,3.0,��
2024/06/01,22:50,0.486,0.744,0.473,0.912,0.666,0.308,0.541,0.502,�k��,2.9,��
2024/06/01,23:00,0.486,0.744,0.471,0.912,0.665,0.310,0.541,0.503,�k�k��,3.0,��
2024/06/01,23:10,0.485,0.742,0.472,0.911,0.665,0.309,0.541,0.501,�k�k��,3.0,��
2024/06/01,23:20,0.484,0.745,0.471,0.910,0.666,0.309,0.541,0.503,�k�k��,3.5,��
2024/06/01,23:30,0.485,0.744,0.473,0.912,0.665,0.310,0.542,0.502,�k�k��,3.6,�L
2024/06/01,23:40,0.486,0.743,0.472,0.914,0.666,0.309,0.540,0.502,�k�k��,4.7,�L
2024/06/01,23:50,0.486,0.743,0.472,0.910,0.668,0.310,0.542,0.503,�k�k��,4.1,��
